Location: Tramacastilla de Tena
(42.7139°N, 0.3160°W)
Time: 20:07:32
(UTC+00:00)

Daily predictions for brighter satellites

Satellite Brightness Start Highest point End
(mag) Time Altitude Azimuth Time Altitude Azimuth Time Altitude Azimuth
BREEZE-M DEB (TANK) 2.8 20:02:46 10° WSW 20:05:42 88° SE 20:14:07 10° ENE
SL-16 R/B 2.6 20:07:08 10° NNW 20:12:46 68° WSW 20:18:23 10° SSE
Cosmos 1346 Rocket 3.6 20:13:07 10° N 20:16:37 32° ENE 20:20:05 10° SE
SeaSat 1 4.3 20:14:59 10° E 20:18:20 19° NE 20:21:43 10° N
CSL-04 Rocket 4.1 20:15:22 10° S 20:20:37 63° WSW 20:25:58 10° NNW
DELTA 2 DEB (DPAF) 4.3 20:18:30 10° N 20:22:43 72° WNW 20:26:54 10° SSW
Ariane Rocket 4.4 20:21:10 10° ESE 20:25:14 25° ENE 20:29:19 10° N
Cosmos 1707 Rocket 4.0 20:22:01 10° SSE 20:26:14 45° E 20:30:28 10° NNE
Okean 3 4.4 20:23:10 10° SSE 20:26:45 29° E 20:30:23 10° NNE
SL-14 R/B 3.3 20:24:19 10° S 20:28:02 58° E 20:31:47 10° NNE
Cosmos 2333 Rocket 2.3 20:24:22 10° NNW 20:30:09 76° ENE 20:35:55 10° SSE
SL-4 R/B 3.5 20:27:16 10° NW 20:30:39 30° NNE 20:34:13 10° E
Cosmos 2237 Rocket 4.5 20:30:19 10° NNE 20:32:01 11° NE 20:33:43 10° ENE
Cosmos 1655 Rocket 4.1 20:26:44 10° S 20:33:02 65° E 20:39:21 10° NNE
BlueWalker 3 2.2 20:30:10 10° WSW 20:33:54 71° NW 20:37:39 10° NE
Cosmos 968 Rocket 3.5 20:29:30 10° SSW 20:34:39 85° ESE 20:39:53 10° NNE
Meteor 1-12 Rocket 4.4 20:28:55 10° N 20:34:58 79° E 20:40:56 10° SSE
CZ-4C R/B 3.4 20:32:44 10° NNE 20:36:52 68° ESE 20:40:52 10° S
Cosmos 1833 4.2 20:32:33 10° SSW 20:38:11 89° ESE 20:43:50 10° NNE
Cosmos 1932 4.5 20:33:52 10° SSW 20:40:13 87° ESE 20:46:32 10° NE
Cosmos 1733 Rocket 3.2 20:39:20 10° N 20:43:44 61° E 20:47:58 11° SSE
Resurs 01 Rocket 3.5 20:40:54 10° SSW 20:44:40 28° W 20:48:27 10° NW
Cosmos 1356 Rocket 3.4 20:40:55 10° S 20:45:07 88° W 20:49:20 10° N
Meteor 1-23 Rocket 4.5 20:40:12 10° SSW 20:45:53 77° W 20:51:40 10° N
Cosmos 807 4.0 20:47:14 10° S 20:50:14 62° E 20:53:07 10° NNE
Cosmos 2322 Rocket 2.8 20:45:12 10° NNW 20:50:44 53° WSW 20:56:14 10° S
USA 234 3.7 20:45:42 10° ENE 20:51:40 37° SE 20:57:36 10° SSW
Cosmos 2333 4.3 20:46:21 10° NNW 20:52:10 87° ENE 20:57:23 13° SSE
Cosmos 2297 Rocket 3.8 20:53:48 13° ESE 20:55:50 16° E 20:59:02 10° ENE
Cosmos 1758 3.6 20:54:42 10° NNW 20:58:37 64° W 21:02:31 10° S
ARGOS Delta rocket 3.9 20:55:05 10° S 20:59:27 67° W 21:03:50 10° NNW
Cosmos 1300 3.1 20:59:07 10° NNW 21:02:37 55° W 21:06:04 10° S
MOS 1 Rocket 3.8 20:58:40 15° SSE 21:03:02 56° ENE 21:08:05 10° N
Cosmos 2219 Rocket 2.2 21:01:32 10° NNW 21:07:15 85° ENE 21:11:43 17° SSE
ERS-1 Rocket 2.9 21:03:32 14° SSE 21:07:56 85° ENE 21:12:58 10° NNW
Cosmos 1814 Rocket 4.1 21:02:48 10° NNW 21:08:08 79° WSW 21:12:36 15° SSE
Cosmos 2315 Rocket 4.3 21:03:14 10° NNW 21:09:36 72° W 21:15:56 10° S
Terra 1.8 21:07:31 16° SSE 21:11:15 78° ENE 21:15:59 10° N
SPOT 5 3.4 21:10:02 10° S 21:14:14 48° W 21:18:35 10° NNW
Iridium 51 4.5 21:15:40 18° SSE 21:18:45 64° E 21:22:48 10° N
Meteor 1-4 Rocket 2.7 21:16:06 10° SSW 21:19:01 55° WNW 21:21:59 10° N
Aureole 3 4.1 21:18:41 10° SSW 21:23:00 69° W 21:28:28 10° N
GP-B 4.4 21:22:18 10° NNE 21:25:55 24° E 21:27:23 21° ESE
Landsat 4 3.4 21:24:23 28° SSE 21:26:02 71° ENE 21:29:27 10° N
Cosmos 2084 Rocket 4.0 21:25:43 21° S 21:27:54 35° ESE 21:31:44 10° NE
CZ-4C R/B 1.8 21:28:16 10° SSW 21:32:27 56° ESE 21:37:36 10° NE
SJ 16-02 3.2 21:28:56 10° SW 21:32:47 31° WNW 21:36:40 10° N
COSMOS 2428 2.9 21:28:04 10° NNW 21:33:45 66° ENE 21:37:11 24° SE
SPOT 3 Rocket 3.5 21:30:22 21° SSE 21:33:53 89° WSW 21:39:05 10° NNW
Cosmos 1953 2.1 21:30:24 10° N 21:34:14 80° E 21:36:00 30° SSE
Cosmos 1455 1.9 21:32:21 10° N 21:35:52 76° E 21:37:14 34° SSE
Cosmos 2360 Rocket 3.7 21:31:18 10° NW 21:36:05 29° WSW 21:40:51 10° SSW
USA 245 4.4 21:34:55 17° SSW 21:37:52 48° W 21:42:41 10° NNW
Cosmos 1745 Rocket 4.4 21:34:05 22° SSE 21:37:52 47° E 21:43:55 10° NNE
Spot 2 Rocket 3.7 21:34:54 19° S 21:38:31 68° WSW 21:43:36 10° NNW
Cosmos 304 Rocket 4.4 21:38:33 28° SE 21:40:07 35° ESE 21:44:26 10° NE
ATLAS 2AS CENTAUR R/B 3.7 21:34:31 10° NW 21:40:30 35° WSW 21:45:21 14° S
Cosmos 1703 Rocket 3.5 21:41:35 23° S 21:44:23 85° E 21:48:51 10° N
Nadezhda 1 Rocket 4.2 21:39:00 10° N 21:45:07 55° ENE 21:48:28 26° SE
Cosmos 1242 Rocket 2.1 21:44:43 39° SW 21:45:30 63° W 21:48:12 10° N
Okean 1-7 3.5 21:42:51 13° SSW 21:46:34 57° W 21:50:50 10° N
Cosmos 1315 Rocket 3.8 21:44:21 10° SSW 21:48:09 44° WNW 21:52:00 10° N
SL-23 DEB 4.3 21:48:12 30° S 21:49:35 42° SE 21:54:46 10° ENE
SeaSat 1 2.5 21:52:49 30° SSE 21:55:17 73° WSW 22:00:13 10° NNW
Cosmos 2208 Rocket 3.9 21:50:53 10° NNW 21:56:05 84° ENE 21:58:30 33° SSE
COSMOS 2455 2.8 21:52:10 10° SSW 21:58:12 88° WNW 22:04:16 10° NNE
Landsat 5 3.5 21:55:45 10° NNE 21:59:54 83° WNW 22:02:11 27° SSW
Cosmos 1408 2.3 22:02:06 51° ENE 22:02:06 51° ENE 22:04:48 10° NNE
Ariane Rocket 3.9 22:00:37 19° SSW 22:03:54 42° W 22:08:44 10° NNW
CZ-2C R/B 4.3 22:00:16 10° NNE 22:04:24 37° E 22:05:09 35° ESE
Cosmos 158 Rocket 3.9 21:59:38 10° NNW 22:04:53 85° WSW 22:07:05 35° SSE
Cosmos 405 Rocket 4.3 22:06:31 10° NNE 22:09:28 21° ENE 22:09:55 21° E
SL-4 R/B 1.8 22:05:44 10° WNW 22:09:40 75° SW 22:10:36 51° SE
Cosmos 1486 Rocket 4.0 22:08:49 21° SSW 22:12:22 83° WNW 22:17:37 10° NNE
CENTAUR R/B 2.8 22:11:56 33° SE 22:13:04 36° ESE 22:18:58 10° NE
Meteor 2-5 Rocket 4.3 22:11:12 32° SE 22:13:16 45° E 22:18:45 10° NNE
Cosmos 2333 Rocket 4.5 22:10:25 10° WNW 22:13:42 16° W 22:16:59 10° SW
SL-16 R/B 4.1 22:10:25 10° N 22:14:33 20° NE 22:18:25 11° E
Cosmos 2237 Rocket 2.5 22:11:45 10° NNW 22:17:21 58° ENE 22:19:45 33° SE
Cosmos 2227 Rocket 2.7 22:18:49 35° SE 22:20:05 40° ESE 22:25:21 10° NE
Cosmos 546 4.5 22:27:44 10° WNW 22:31:35 71° SW 22:31:42 71° SSW
Cosmos 1980 3.7 22:26:01 10° NNW 22:31:44 80° ENE 22:33:48 41° SSE
Cosmos 2242 Rocket 3.6 22:31:20 44° SSW 22:32:46 81° W 22:37:21 10° N
Cosmos 1354 Rocket 4.0 22:31:06 41° S 22:32:55 71° ESE 22:38:12 10° NNE
USA 234 3.6 22:28:25 10° NE 22:34:55 68° NW 22:41:23 10° WSW
Cosmos 1709 Rocket 4.0 22:33:28 33° S 22:36:37 90° NNE 22:42:59 10° N
Cosmos 2297 Rocket 2.3 22:35:31 23° SSW 22:39:09 74° WNW 22:44:49 10° NNE
Cosmos 371 Rocket 4.3 22:45:02 17° SW 22:48:21 42° WNW 22:52:56 10° N
Terra 4.4 22:48:01 10° WSW 22:49:23 11° W 22:50:45 10° WNW
Cosmos 2219 Rocket 4.4 22:47:44 10° WNW 22:50:22 13° W 22:52:59 10° SW
Cosmos 2219 3.7 22:51:47 39° ESE 22:52:23 40° ESE 22:57:36 10° NE
Cosmos 1300 Rocket 4.5 22:49:06 10° NNW 22:53:06 38° W 22:54:07 33° WSW
USA 281 3.2 22:50:46 37° SE 22:53:37 75° ENE 23:00:12 10° NNW
Meteor 1-24 Rocket 3.7 22:52:46 40° SSW 22:54:54 83° W 23:00:29 10° N
Cosmos 1703 3.6 22:55:32 49° W 22:55:50 51° W 22:59:26 10° N
Cosmos 773 Rocket 4.2 22:50:49 10° NNW 22:55:52 57° WSW 22:57:07 45° SSW
ARIANE 5 R/B 2.6 22:57:21 59° SSW 22:57:56 68° WSW 23:02:18 10° NNW
PSLV R/B 3.8 22:54:52 10° N 22:58:51 77° WNW 22:59:11 70° SW
Cosmos 2263 Rocket 3.0 23:01:07 33° ESE 23:01:24 33° ESE 23:06:20 10° NE
Cosmos 2184 Rocket 4.5 22:59:56 38° SE 23:01:46 48° E 23:07:51 10° NNE
Cosmos 1378 Rocket 3.4 23:10:40 75° SSW 23:11:02 89° WNW 23:15:27 10° N
Cosmos 1674 Rocket 3.3 23:14:09 79° SSE 23:14:22 83° E 23:18:42 10° N
Cosmos 292 Rocket 4.3 23:17:32 43° ESE 23:17:32 43° ESE 23:22:03 10° NNE
NOSS 3-2 (A) 3.0 23:18:38 58° S 23:19:33 71° ESE 23:25:27 10° NE
Cosmos 2154 Rocket 4.3 23:18:32 42° SE 23:20:12 54° E 23:26:18 10° NNE
CZ-4C R/B 4.2 23:17:25 10° W 23:21:19 24° NW 23:25:58 10° NNE
Cosmos 1825 2.6 23:23:13 53° N 23:23:13 53° N 23:25:56 10° N
NOSS 3-2 (C) 3.8 23:30:22 36° ESE 23:30:22 36° ESE 23:35:31 10° NE
PSLV R/B 3.9 23:27:03 10° NNE 23:30:49 48° E 23:30:49 48° E
Cosmos 2151 Rocket 3.6 23:27:16 10° NNW 23:31:37 62° W 23:31:48 62° WSW
H-2A R/B 2.8 23:32:47 52° WSW 23:32:49 52° W 23:36:57 10° NNW
Cosmos 1538 Rocket 4.0 23:28:36 10° NNW 23:33:50 76° ENE 23:34:51 58° SE
Cosmos 1818 4.3 23:28:47 10° NNW 23:34:05 47° NE 23:36:28 29° ESE
Cosmos 1892 3.3 23:34:58 47° NW 23:34:58 47° NW 23:37:57 10° N
Cosmos 2098 Rocket 4.5 23:30:09 10° NNW 23:36:18 48° W 23:38:07 37° SW
Okean 2 Rocket 3.2 23:32:09 10° NNW 23:36:35 61° W 23:36:50 60° WSW
Cosmos 1328 3.9 23:41:31 71° N 23:41:31 71° N 23:45:00 10° N
ALOS 2 2.6 23:42:15 69° WSW 23:42:20 69° WSW 23:46:44 10° NNW
Cosmos 405 Rocket 4.4 23:41:24 10° NW 23:44:11 24° W 23:44:11 24° W
Meteor 2-11 Rocket 4.4 23:45:25 52° SSE 23:46:56 76° E 23:53:03 10° NNE
Aureole 1 Rocket 2.8 23:48:39 82° NNE 23:48:39 82° NNE 23:53:13 10° NNE
Cosmos 1937 Rocket 3.9 23:48:31 46° ESE 23:48:54 47° ESE 23:53:55 10° NNE
